Location: Arcueil
(48.7999°N, 2.3326°E)
Time: 23:25:21
(UTC+00:00)

Cosmos 2278 Rocket - Pass Details

Date: 03 February 2023
Orbit: 841 x 845 km, 71.0° (Epoch: 21 March)

Event Time Altitude Azimuth Distance (km) Brightness Sun altitude
Rises 18:11:10 0° 335° (NNW) 3,417 5.6 -13.4°
Reaches altitude 10° 18:14:24 10° 354° (N) 2,478 4.6 -13.9°
Maximum altitude 18:18:20 19° 38° (NE) 1,927 3.7 -14.5°
Enters shadow 18:19:31 18° 54° (NE) 1,980 3.6 -14.7°
